[[{"header":{"parameterUnit":"m.s-1","parameterCategory":1,"la1":30.2992,"la2":30.254,"lo1":-89.0895,"lo2":-89.0443,"dy":0.0025,"dx":0.0025,"nx":19,"ny":19,"refTime":"2026-04-09T21:00:00:Z","depth":0,"parameterNumber":2,"parameterNumberName":"U-component_of_WINDS"},"data":[0,0,0,-3.7553,-3.7557,-3.7754,-3.7755,-3.8037,-3.804,0,0,0,0,0,0,0,0,0,0,0,-3.751,-3.7513,-3.7552,-3.7557,-3.7754,-3.7755,-3.8036,-3.804,0,0,0,0,0,0,0,0,0,0,0,-3.7509,-3.7512,-3.7515,-3.7558,-3.7754,-3.7755,-3.8036,-3.7877,0,0,0,0,0,0,0,0,0,0,-3.7681,-3.7657,-3.7511,-3.7515,-3.756,-3.7754,-3.7755,-3.7869,-3.7887,-3.796,0,-3.8027,0,-3.8038,-3.806,-3.8061,0,0,0,-3.7546,-3.7642,-3.768,-3.7516,-3.7561,-3.7754,-3.7662,-3.7879,-3.7899,-3.7984,-3.8031,-3.8041,-3.8043,-3.8062,-3.8064,-3.8519,-3.8522,0,0,-3.7535,-3.7555,-3.7666,-3.7694,-3.7663,-3.7656,-3.7668,-3.789,-3.7944,-3.8032,-3.8047,-3.8047,-3.8064,-3.8067,-3.8517,-3.852,0,0,0,-3.7512,-3.7548,-3.758,-3.7684,-3.7717,-3.7662,-3.7676,-3.7934,-3.7943,-3.805,-3.8051,-3.8066,-3.807,-3.8514,-3.8518,-3.867,0,0,0,-3.7505,-3.7534,-3.7576,-3.759,-3.7713,-3.7827,-3.7716,-3.7927,-3.7952,-3.8049,-3.8066,-3.8073,-3.8511,-3.8516,-3.8659,-3.874,0,0,0,-3.7492,-3.7533,-3.7566,-3.7591,-3.7676,-3.7823,-3.7844,-3.7932,-3.7953,-3.8062,-3.8074,-3.8509,-3.8515,-3.865,-3.8724,-3.8868,0,0,0,-3.7485,-3.7699,-3.7569,-3.7808,-3.7675,-3.7914,-3.7843,-3.8021,-3.8132,-3.8068,-3.8511,-3.8517,-3.8647,-3.8715,-3.8858,-3.8994,-3.9051,0,0,-3.7767,-3.7734,-3.7873,-3.7762,-3.803,-3.7883,-3.8174,-3.8258,-3.825,-3.843,-3.8441,-3.8663,-3.8723,-3.8865,-3.9361,-3.9407,0,0,0,-3.7969,-3.807,-3.8136,-3.8242,-3.8309,-3.8375,-3.841,-3.8441,-3.8593,-3.8346,-3.8751,-3.8786,-3.8869,-3.8933,-3.8972,-3.9043,-3.8547,-3.8546,-3.8546,-3.8399,-3.8376,-3.8606,-3.8607,-3.871,-3.8745,-3.8828,-3.8875,-3.8823,-3.8919,-3.8974,-3.9277,-3.9353,-3.9382,-3.9457,-3.9041,-3.9041,-3.9042,-3.9042,-3.8812,-3.8952,-3.8875,-3.9071,-3.9046,-3.9211,-3.9253,-3.921,-3.9362,-3.9234,-3.9306,-3.9172,-3.9434,-3.9497,-3.9054,-3.9052,-3.905,-3.9049,-3.9048,-3.9094,-3.9157,-3.9189,-3.9339,-3.9458,-3.9451,-3.96,-3.9572,-3.9547,-3.9617,-3.9674,-3.9671,-3.9668,-3.9645,-3.9646,-3.9648,-3.9648,-3.9649,-3.965,-3.9375,-3.9406,-3.9534,-3.9623,-3.9687,-3.9768,-3.9804,-3.9867,-3.9931,-3.9899,-3.9899,-3.984,-3.9461,-3.9369,-3.9666,-3.9663,-3.9661,-3.966,-3.9659,-3.9809,-3.9706,-3.9903,-3.9968,-4.007,-4.0191,-4.0151,-4.0283,-4.0331,-4.0406,-4.033,-4.0053,-4.0019,-3.9988,-3.9912,-4.0331,-4.0331,-4.0331,-4.0331,-4.005,-4.0027,-4.0223,-4.0328,-4.0428,-4.0412,-4.0639,-4.0669,-4.0685,-4.0714,-4.0648,-4.0543,-4.0512,-4.0496,-4.0454,-4.0382,-4.0912,-4.0913,-4.0914,-4.0316,-4.0302,-4.0501,-4.0511,-4.0589,-4.0657,-4.087,-4.0996,-4.0992,-4.0937,-4.0736,-4.0712,-4.0542,-4.0487,-4.0431,-4.0366,-4.0234,0,0]},{"header":{"parameterUnit":"m.s-1","parameterCategory":1,"la1":30.2992,"la2":30.254,"lo1":-89.0895,"lo2":-89.0443,"dy":0.0025,"dx":0.0025,"nx":19,"ny":19,"refTime":"2026-04-09T21:00:00:Z","depth":0,"parameterNumber":3,"parameterNumberName":"V-component_of_WINDS"},"data":[0,0,0,-1.5708,-1.5706,-1.5634,-1.5633,-1.5553,-1.5553,0,0,0,0,0,0,0,0,0,0,0,-1.5739,-1.5739,-1.5708,-1.5706,-1.5634,-1.5633,-1.5553,-1.5553,0,0,0,0,0,0,0,0,0,0,0,-1.5739,-1.5739,-1.5739,-1.5706,-1.5634,-1.5633,-1.5553,-1.5603,0,0,0,0,0,0,0,0,0,0,-1.5671,-1.5711,-1.5739,-1.5739,-1.5706,-1.5634,-1.5633,-1.5605,-1.56,-1.5592,0,-1.559,0,-1.557,-1.5548,-1.5548,0,0,0,-1.5698,-1.5715,-1.5687,-1.5739,-1.5705,-1.5634,-1.5664,-1.5602,-1.5596,-1.5585,-1.5589,-1.5585,-1.5569,-1.5548,-1.5547,-1.5535,-1.5535,0,0,-1.5702,-1.5731,-1.5691,-1.5684,-1.5698,-1.5667,-1.5662,-1.5598,-1.5603,-1.5589,-1.5583,-1.5568,-1.5547,-1.5547,-1.5535,-1.5535,0,0,0,-1.5719,-1.5734,-1.5707,-1.5687,-1.5674,-1.5665,-1.5659,-1.5606,-1.5595,-1.5582,-1.5567,-1.5547,-1.5546,-1.5534,-1.5535,-1.558,0,0,0,-1.5721,-1.5744,-1.5709,-1.5726,-1.5675,-1.5639,-1.5669,-1.5599,-1.5591,-1.5567,-1.5547,-1.5546,-1.5534,-1.5535,-1.5578,-1.5595,0,0,0,-1.574,-1.5746,-1.574,-1.5728,-1.5698,-1.564,-1.5625,-1.5597,-1.5582,-1.5548,-1.5545,-1.5534,-1.5534,-1.5576,-1.5592,-1.56,0,0,0,-1.5769,-1.578,-1.5741,-1.5746,-1.5699,-1.5669,-1.5625,-1.56,-1.5577,-1.5547,-1.5534,-1.5535,-1.5575,-1.559,-1.5598,-1.5612,-1.562,0,0,-1.5799,-1.5784,-1.5785,-1.5748,-1.5733,-1.5678,-1.5667,-1.5617,-1.5586,-1.5553,-1.5552,-1.5578,-1.5592,-1.56,-1.566,-1.5667,0,0,0,-1.5804,-1.5805,-1.5795,-1.5775,-1.5738,-1.5707,-1.5656,-1.5637,-1.5607,-1.5576,-1.5582,-1.559,-1.5593,-1.5598,-1.5604,-1.5604,-1.5539,-1.5538,-1.5538,-1.5887,-1.5849,-1.5847,-1.58,-1.5781,-1.5727,-1.5707,-1.5672,-1.5638,-1.564,-1.563,-1.5671,-1.5678,-1.5682,-1.5683,-1.5634,-1.5634,-1.5634,-1.5635,-1.5926,-1.5921,-1.5876,-1.5859,-1.5817,-1.5801,-1.5749,-1.5726,-1.5703,-1.5676,-1.5677,-1.565,-1.5692,-1.569,-1.5638,-1.5637,-1.5637,-1.5636,-1.5636,-1.5976,-1.5966,-1.5945,-1.5911,-1.5889,-1.5839,-1.582,-1.5782,-1.5746,-1.5747,-1.5732,-1.5731,-1.5724,-1.5743,-1.5743,-1.5743,-1.5743,-1.5743,-1.5743,-1.6035,-1.6009,-1.5999,-1.5961,-1.5942,-1.5913,-1.586,-1.5839,-1.5807,-1.5781,-1.578,-1.5745,-1.5704,-1.5693,-1.5745,-1.5745,-1.5745,-1.5745,-1.5744,-1.6088,-1.607,-1.6054,-1.6036,-1.5987,-1.5967,-1.592,-1.5882,-1.586,-1.5851,-1.5815,-1.5791,-1.5773,-1.5768,-1.5759,-1.5825,-1.5825,-1.5825,-1.5825,-1.6129,-1.6116,-1.6091,-1.6065,-1.6034,-1.599,-1.597,-1.5928,-1.5881,-1.5864,-1.5849,-1.5835,-1.5831,-1.5815,-1.5809,-1.58,-1.5875,-1.5875,-1.5875,-1.6158,-1.6141,-1.6133,-1.609,-1.6049,-1.6014,-1.5994,-1.5963,-1.5906,-1.5876,-1.585,-1.5848,-1.5824,-1.5818,-1.5788,-1.5779,-1.5762,0,0]}]]